Home   Weather   Freeport   Past weeks
Flag for Bahamas

Past Weather in Freeport, Bahamas — Yesterday and Last 2 Weeks

Now
79 °F

Passing clouds.


Feels Like: 81 °F
Forecast: 83 / 75 °F
Wind: 9 mph from East

Location: Palm Beach International Airport

Current Time: Oct 15, 2019 at 1:14:06 am

Latest Report: Oct 14, 2019 at 11:53 pm


Visibility: 10 mi

Pressure: 30.08 "Hg

Humidity: 69%

Dew Point: 68 °F

Location of FreeportLocation

Past Weather in Freeport — Graph

°F

Freeport Temperature Yesterday

Maximum temperature yesterday: 85 °F (at 1:53 pm)
Minimum temperature yesterday: 77 °F (at 7:23 am)
Average temperature yesterday: 81 °F

High & Low Weather Summary for the Past Weeks

 TemperatureHumidityPressure
High88 °F (Sep 30, 12:53 pm)100% (Oct 7, 11:53 pm)30.08 "Hg (Oct 7, 11:53 pm)
Low73 °F (Oct 4, 5:53 am)53% (Oct 1, 2:53 pm)29.79 "Hg (Oct 7, 4:53 pm)
Average81 °F74%29.95 "Hg
* Reported Sep 29 11:53 pm — Oct 14 11:53 pm, Freeport. Weather by CustomWeather, © 2019

Note: Actual official high and low records may vary slightly from our data, if they occured in-between our weather recording intervals... More about our weather records

Advertising

Freeport Weather History for the Previous 24 Hours

Scroll right to see more
 ConditionsComfort  
Time TempWeatherWind HumidityBarometerVisibility
11:53 pm
Mon, Oct 14
79 °FPassing clouds.9 mph69%30.08 "Hg10 mi
10:53 pm79 °FPassing clouds.8 mph69%30.07 "Hg10 mi
9:53 pm80 °FPassing clouds.10 mph69%30.06 "Hg10 mi
8:53 pm80 °FPassing clouds.10 mph67%30.05 "Hg10 mi
7:53 pm81 °FPassing clouds.10 mph62%30.04 "Hg10 mi
6:53 pm81 °FPassing clouds.9 mph62%30.03 "Hg10 mi
5:53 pm82 °FScattered clouds.10 mph60%30.02 "Hg10 mi
4:53 pm83 °FScattered clouds.14 mph63%30.02 "Hg10 mi
3:53 pm83 °FScattered clouds.10 mph65%30.01 "Hg10 mi
2:53 pm84 °FScattered clouds.14 mph65%30.02 "Hg10 mi
1:53 pm85 °FBroken clouds.15 mph63%30.03 "Hg10 mi
12:53 pm84 °FBroken clouds.13 mph65%30.06 "Hg10 mi
11:53 am84 °FScattered clouds.10 mph65%30.07 "Hg10 mi
10:53 am84 °FBroken clouds.12 mph67%30.08 "Hg10 mi
9:53 am82 °FScattered clouds.10 mph74%30.07 "Hg10 mi
8:53 am79 °FBroken clouds.6 mph82%30.05 "Hg10 mi
8:18 am78 °FBroken clouds.No wind84%30.05 "Hg10 mi
7:53 am77 °FBroken clouds.7 mph85%30.04 "Hg10 mi
7:23 am77 °FLight rain. Partly sunny.8 mph88%30.04 "Hg10 mi
6:53 am78 °FPassing clouds.10 mph82%30.03 "Hg10 mi
5:53 am78 °FPartly cloudy.5 mph82%30.01 "Hg10 mi
4:53 am79 °FPartly cloudy.3 mph79%30.00 "Hg10 mi
3:53 am79 °FPartly cloudy.8 mph79%30.00 "Hg10 mi
2:53 am79 °FPassing clouds.5 mph74%30.01 "Hg10 mi
1:53 am80 °FPartly cloudy.6 mph74%30.02 "Hg10 mi
Weather by CustomWeather, © 2019

See weather overview